This is the latest recevied weather packets stored in our database for station/object IZ5MJO-13. If no packets are shown the sender has not sent any weather packets the latest 10 day(s).
| Time | Temp. | Humidity | Pressure | Rain* | Wind** | Luminosity | Snow |
|---|---|---|---|---|---|---|---|
| 1777544012 | 18.33° C | 33% | 1009.7 hPa | - | - | - | - |
| 1777543112 | 18.33° C | 33% | 1009.6 hPa | - | - | - | - |
| 1777542212 | 18.33° C | 35% | 1009.6 hPa | - | - | - | - |
| 1777541312 | 17.78° C | 36% | 1009.7 hPa | - | - | - | - |
| 1777540412 | 17.78° C | 38% | 1009.6 hPa | - | - | - | - |
| 1777539511 | 17.22° C | 38% | 1009.6 hPa | - | - | - | - |
| 1777538611 | 17.22° C | 39% | 1009.5 hPa | - | - | - | - |
| 1777537711 | 17.22° C | 41% | 1009.4 hPa | - | - | - | - |
| 1777536819 | 16.67° C | 42% | 1009.2 hPa | - | - | - | - |
| 1777535919 | 16.11° C | 43% | 1008.9 hPa | - | - | - | - |
| 1777535018 | 15.56° C | 46% | 1008.7 hPa | - | - | - | - |
| 1777534118 | 15° C | 46% | 1008.6 hPa | - | - | - | - |
| 1777533218 | 15° C | 47% | 1008.7 hPa | - | - | - | - |
| 1777532317 | 14.44° C | 49% | 1008.6 hPa | - | - | - | - |
| 1777531417 | 13.89° C | 50% | 1008.6 hPa | - | - | - | - |
| 1777530516 | 13.33° C | 52% | 1008.1 hPa | - | - | - | - |
| 1777529616 | 13.33° C | 53% | 1008.1 hPa | - | - | - | - |
| 1777528715 | 13.89° C | 55% | 1008.3 hPa | - | - | - | - |
| 1777527815 | 13.89° C | 54% | 1008.1 hPa | - | - | - | - |
| 1777526915 | 13.89° C | 52% | 1007.9 hPa | - | - | - | - |
| 1777526356 | 13.89° C | 54% | 1007.8 hPa | - | - | - | - |
| 1777526308 | 13.89° C | 56% | 1007.5 hPa | - | - | - | - |
| 1777526260 | 13.33° C | 56% | 1007.5 hPa | - | - | - | - |
| 1777526118 | 12.78° C | 59% | 1007.2 hPa | - | - | - | - |
| 1777526110 | 13.33° C | 55% | 1007.3 hPa | - | - | - | - |
* Rain since midnight (hover to see other rain measurements)
** Current wind speed in m/s (hover to see current wind gust speed)